India Forums Logo

Kya Huaa Tera Vaada

India Forums > Forum Index > Kya Huaa Tera Vaada
Hers is the classic case of a woman who ceases to play any other role except that of a mom.
...
<< | 9 | 10 | 11 | 12 | 13 | 14 | 15 | 16 | 17 | 18 | 19 | 20 | 21 | 22 | 23 | 24 | 25 | 26 | >>
TIDTopic SubjectStart DateLast Entry
3329563What do i foresee...12/5/2012 3:16:13 PM12/6/2012 12:22:56 AM
3329860HT-M- Must Watch - KHTV12/5/2012 7:59:19 PM12/9/2012 12:46:45 PM
3330106Bollywoodlife-KHTV - Moulis attempts fall flat12/6/2012 12:17:51 AM12/6/2012 8:18:53 AM
3330148End of a journey-Vineet12/6/2012 12:50:27 AM12/7/2012 8:04:56 PM
3330152Shocking12/6/2012 12:52:00 AM12/6/2012 8:33:21 AM
3330402Spoiler for today s episode12/6/2012 4:16:04 AM12/6/2012 8:35:43 AM
3330649Bad apple is hidden under good Apples12/6/2012 7:31:22 AM12/6/2012 7:40:58 AM
3330818Vineet Raizada/Darshan Pandya:Good move12/6/2012 8:53:01 AM12/6/2012 8:47:36 PM
3330841Tthoughts with all this leaping going on...12/6/2012 9:00:54 AM12/6/2012 12:26:16 PM
3330948Is it the Biggest blooper or M'I wrong :P12/6/2012 9:44:16 AM12/6/2012 1:06:28 PM
3330994WU:6/12-Mona nibhayegi Vaada;Anu legi Badla :P12/6/2012 10:01:14 AM12/9/2012 2:50:48 PM
3331127new promo post leap12/6/2012 10:56:45 AM12/7/2012 11:20:25 AM
3331304TOI: What ails daily soaps? KHTV12/6/2012 12:04:40 PM12/9/2012 12:21:50 PM
3331506Moneet12/6/2012 2:32:34 PM12/7/2012 4:35:08 AM
3331526Pradeep dead!12/6/2012 3:05:31 PM12/9/2012 12:06:28 PM
3331542mouli ganguly?12/6/2012 3:48:16 PM12/6/2012 4:52:17 PM
3331646Some thoughts on KHTV ten years from now...12/6/2012 5:06:09 PM12/7/2012 11:43:39 AM
3331786I'm not sure12/6/2012 8:35:30 PM12/6/2012 8:35:30 PM
3331820I might be in the minority here, but Pradeep...12/6/2012 9:13:59 PM12/7/2012 8:00:53 PM
3331872REVENGE INSTEAD OF KHTV12/6/2012 10:08:19 PM12/7/2012 6:04:07 AM
3332378Will u like KHTV and its track now after leap?12/7/2012 5:25:09 AM12/9/2012 9:40:41 AM
3332384What will be ur reason of watching KHTV after leap12/7/2012 5:28:12 AM12/8/2012 9:31:23 AM
3333158Promo Leap Video/Opinion12/7/2012 12:40:16 PM12/9/2012 11:51:10 AM
3333314Metro Masti:Anu & Mona's lives after 10yrs leap12/7/2012 3:08:52 PM12/8/2012 12:13:28 PM
3333496TOI: 10 Talising faces of TV-Mona12/7/2012 7:07:01 PM12/9/2012 12:19:44 PM
3333588Petition to Cancel Please!12/7/2012 9:21:20 PM12/9/2012 7:49:13 AM
3334626Can some1 tell me if Sargun Metha is playin Bulbul12/8/2012 12:37:48 PM12/8/2012 12:52:08 PM
3334683Leap or History repeat?12/8/2012 2:00:23 PM12/8/2012 7:10:57 PM
3334690DC:Womanly Love-KHTV12/8/2012 2:19:54 PM12/8/2012 9:38:10 PM
3334700DNA: 10 year leap in KHTV12/8/2012 2:39:21 PM12/9/2012 1:22:24 AM
3334833HT-BFC-The ideal Family12/8/2012 8:44:02 PM12/9/2012 8:20:37 AM
3335775TOI: Sargun-Neelam in KHTV12/9/2012 11:49:04 AM12/10/2012 1:01:03 AM
3335982HT[M] - Must watch - KH12/9/2012 7:45:35 PM12/9/2012 7:52:11 PM
3336159Previous Maha episode12/10/2012 12:16:36 AM12/10/2012 2:16:29 AM
3336552TOI: Post leap children take over in KHTV12/10/2012 4:42:51 AM12/11/2012 12:57:29 AM
3336816TB: Kya Huaa Tera Vaada takes a 10 year leap12/10/2012 7:35:52 AM12/10/2012 7:35:52 AM
3336827Cant believe this stupid show12/10/2012 7:41:03 AM12/13/2012 9:51:10 PM
3337236WU:10/12-Ek Nayi Shuruwaat...12/10/2012 10:35:59 AM12/11/2012 9:59:31 AM
3337721same looks 10 yrs later12/10/2012 5:23:08 PM12/23/2012 4:25:46 AM
3337749Ravi Dubey may play the love interest of Bulbul12/10/2012 6:16:30 PM12/11/2012 11:03:37 AM
3338019bulbul confused!!12/10/2012 11:00:32 PM12/12/2012 1:01:34 PM
3338108bulbul and anus daughter of same age?12/11/2012 12:16:05 AM12/11/2012 2:12:27 AM
3339159Telly News Exclusive : Nach Baliye 5 Promo * Ravi12/11/2012 10:50:29 AM1/2/2013 8:31:51 AM
3339187WU:Bulbul's sting operation;Nok jok of sisters12/11/2012 11:06:30 AM12/12/2012 5:39:47 AM
3339521DC: Big battle continues - KHTV12/11/2012 4:29:29 PM12/12/2012 8:21:17 AM
3340075TOI:Wonderful working with Mona again-Sakshi12/12/2012 2:30:17 AM12/12/2012 4:08:45 PM
334069112-12-12:WU:Sun sun Didi tere lie rishta aya hai12/12/2012 9:49:35 AM12/12/2012 8:03:23 PM
3340925bulbul--star attraction post leap.12/12/2012 11:43:07 AM12/14/2012 3:01:25 AM
3341004Grown up Rano...grrr12/12/2012 12:32:32 PM12/24/2012 9:00:50 PM
3342507Telly Tadka- Sargun makes impressive reporter12/13/2012 10:09:07 AM12/13/2012 10:09:07 AM
3342660How many quit12/13/2012 11:08:04 AM12/19/2012 12:28:50 AM
3342664WU:13/12-Intezaar aur sahi;Mile jab hum tum12/13/2012 11:09:59 AM12/14/2012 6:14:28 AM
3342738TOI: Looks matter the most - Darshan12/13/2012 11:52:26 AM12/14/2012 12:41:17 PM
3343135DC: Strange coincidence-Sargun12/13/2012 7:42:00 PM12/15/2012 7:14:55 PM
3344049TOI: Mouli-Mazhar to act together12/14/2012 8:52:32 AM12/14/2012 9:39:06 AM
3344664||KHTV Media Gallery||12/14/2012 2:33:58 PM12/16/2012 1:03:32 PM
3345056TOI-Anika will help me evolve: Neelam Sivia12/15/2012 12:30:00 AM12/17/2012 11:11:50 AM
3345467Its Mouli's birthday today12/15/2012 6:48:40 AM12/17/2012 5:50:43 AM
3345995~*Rename KHTV Contest Voting Round 1*~Closed12/15/2012 6:29:26 PM12/21/2012 2:29:53 PM
3346043HT[M]-Ekta turns Mona into cool mom12/15/2012 8:30:09 PM12/15/2012 8:30:09 PM
3346251News24/ E24 - TVs new hot couple-Sargun in NB12/16/2012 1:04:13 AM12/16/2012 3:25:01 AM
3346951TB: Ekta wanted me to be 'cool mom' post leap:Mona12/16/2012 1:30:46 PM12/18/2012 10:22:33 AM
334814017th Dec WU:Anushka in Australia??12/17/2012 10:19:42 AM12/18/2012 3:06:55 AM
3348423will bulbull try to get rihan??12/17/2012 12:30:08 PM12/17/2012 12:40:46 PM
3348576Mamaji!!! from BALH12/17/2012 3:28:39 PM12/26/2012 5:33:57 AM
3349007Which show am I watching? Confused!12/17/2012 11:57:12 PM12/19/2012 3:12:40 PM
3349041Return of the small screen titans --Article12/18/2012 12:27:55 AM12/18/2012 12:44:13 AM
3350106TOI:TV baddies take show to new ht-Mouli12/18/2012 11:50:07 AM12/19/2012 11:29:16 AM
3350161tomorrow is trp day.12/18/2012 12:41:19 PM1/17/2013 11:15:09 AM
3350257WU:18/12-Anu's desire;Trouble ahead for Mona...12/18/2012 2:28:01 PM12/19/2012 5:35:23 AM
3351477what should i do?12/19/2012 9:03:19 AM12/19/2012 9:03:19 AM
3351538LEAP a diwali cleanup:-?12/19/2012 9:33:21 AM12/19/2012 9:33:21 AM
335158219th Dec:WU: Dhoka Part II - Ajay/Bulbul12/19/2012 9:45:17 AM12/19/2012 1:57:46 PM
3351708bulbul moves ahead.12/19/2012 10:27:56 AM12/19/2012 10:27:56 AM
3351719rehaan and bulbul.12/19/2012 10:33:22 AM12/20/2012 7:57:45 AM
<< | 9 | 10 | 11 | 12 | 13 | 14 | 15 | 16 | 17 | 18 | 19 | 20 | 21 | 22 | 23 | 24 | 25 | 26 | >>